Location: Doverdale
(52.2833°N, 2.2000°W)
Time: 03:30:49
(UTC+00:00)

Cosmos 1939 Rocket - Pass Details

Date: 29 October 2020
Orbit: 532 x 584 km, 97.4° (Epoch: 24 November)

Event Time Altitude Azimuth Distance (km) Brightness Sun altitude
Rises 18:31:35 0° 179° (S) 2,723 6.4 -16.8°
Reaches altitude 10° 18:33:46 10° 185° (S) 1,824 5.5 -17.2°
Maximum altitude 18:37:35 48° 260° (W) 717 3.8 -17.7°
Drops below altitude 10° 18:41:24 10° 337° (NNW) 1,814 5.8 -18.3°
Sets 18:43:34 0° 343° (NNW) 2,705 6.6 -18.7°
